Tracking 30995 objects as of 7-Jul-2025
HD Live streaming from Space Station
objects crossing your sky now

CZ-4B DEB

Track CZ-4B DEB now!
10-day predictions


NORAD ID: 38310
Int'l Code: 2011-079D
Perigee: 629.7 km
Apogee: 778.6 km
Inclination: 98.7 °
Period: 98.7 minutes
Semi major axis: 7075 km
RCS: 0.0012 m2 (small)
Launch date: December 22, 2011
Source: People's Republic of China (PRC)
Launch site: Taiyaun Space Center, China (TSC)

Note: This is SATELLITE DEBRIS
Your satellite tracking list
Your tracking list is empty




NASA's NSSDC Master Catalog

Two Line Element Set (TLE):
1 38310U 11079D   25187.27437160  .00001931  00000-0  39366-3 0  9990
2 38310  98.6761 115.3075 0105220 172.9716 340.2560 14.58806376711983
Source of the keplerian elements: AFSPC